Portada
METAR-TAF:

METAR-TAF

Aeroports :

Fort Richardson, Alaska, Estats Units d'Amèrica

latitud: 61-15-45N, longitud: 149-39-17W, altitud: 115 m

Observació

L'informe es va fer fa 12 minuts, a les 12:58 UTC
Vent calma
Temperatura 11°C
Humitat 82%
Pressió 1006 hPa
Visibilitat: 16.1 km
Cel ennuvolat a una alçada de 7000 ft
Cel cobert a una alçada de 10000 ft

METAR: PAFR 161258Z AUTO 00000KT 10SM BKN070 OVC100 11/08 A2971 RMK AO2 SLP066 T01060082

Hora: 05:10 (13:10 UTC)


TAF: manca

Observacions i pronòstics meteorològics de més de 4000 aeroports (METAR i TAF).

Les estacions disponibles són els punts grocs i vermells al mapa.

Posi el ratolí al punt desitjat per veure el nom de l'estació.

Feu clic per veure les observacions i els pronòstics meteorològics.

Per canviar el mapa: feu clic els botons verds amb una creu de color negre per apropar; al botó verd amb un guió per allunyar la imatge; o en les fletxes verdes per a mapes adjacents.


METAR-TAF: